User: anonymous   Login
Location: Unspecified
(0.0000°N, 0.0000°E)
Time: 04:01:23
(UTC+00:00)
Language:

Quikscat - Orbit

View from above orbital plane
View from above orbital plane
View from above satellite
View from above satellite

Ground track
Ground track

The orbit data is extracted from the following two-line orbital elements,

1 25789U 99034A   18292.80711803  .00000035  00000-0  21106-4 0  9998
2 25789  98.6030 119.9179 0099419 166.1409 194.2550 14.49317326  7109
Epoch (UTC): 19 October 2018 19:22:14
Eccentricity: 0.0099419
inclination: 98.6030°
perigee height: 657 km
apogee height: 798 km
right ascension of ascending node: 119.9179°
argument of perigee: 166.1409°
revolutions per day: 14.49317326
mean anomaly at epoch: 194.2550°
orbit number at epoch: 710

The dashed part of the orbit path shows where the satellite is in the earth's shadow,  

DLR